timestamp,wind_dir_avg,wind_spd_max_dir,wind_spd_avg,wind_spd_gust,battery_voltage,lat,long
2018-11-25 00:00:00+00:00,320.0,328.0,10.27,12.32,,47.59359,-54.27349
2018-11-25 00:10:00+00:00,321.0,320.0,7.5,9.1,,47.59359,-54.27349
2018-11-25 00:20:00+00:00,317.0,317.0,8.67,10.22,,47.59359,-54.27349
2018-11-25 00:30:00+00:00,326.0,326.0,8.58,10.59,,47.59359,-54.27349
2018-11-25 00:40:00+00:00,325.0,326.0,8.26,9.62,,47.59359,-54.27349
2018-11-25 00:50:00+00:00,328.0,328.0,10.23,12.27,,47.59359,-54.27349
2018-11-25 01:00:00+00:00,325.0,322.0,10.02,12.67,,47.59359,-54.27349
2018-11-25 01:10:00+00:00,329.0,339.0,10.35,12.19,,47.59359,-54.27349
2018-11-25 01:20:00+00:00,332.0,330.0,10.5,11.58,,47.59359,-54.27349
2018-11-25 01:30:00+00:00,326.0,331.0,10.27,12.84,,47.59359,-54.27349
2018-11-25 01:40:00+00:00,326.0,322.0,9.89,11.51,,47.59359,-54.27349
2018-11-25 01:50:00+00:00,335.0,334.0,10.71,13.23,,47.59359,-54.27349
2018-11-25 02:00:00+00:00,327.0,335.0,10.26,12.33,,47.59359,-54.27349
2018-11-25 02:10:00+00:00,321.0,326.0,9.8,11.18,,47.59359,-54.27349
2018-11-25 02:20:00+00:00,331.0,337.0,9.15,10.88,,47.59359,-54.27349
2018-11-25 02:30:00+00:00,319.0,321.0,10.26,12.78,,47.59359,-54.27349
2018-11-25 02:40:00+00:00,316.0,316.0,9.95,12.75,,47.59359,-54.27349
2018-11-25 02:50:00+00:00,327.0,333.0,11.58,14.69,,47.59359,-54.27349
2018-11-25 03:00:00+00:00,322.0,316.0,10.95,12.57,,47.59359,-54.27349
2018-11-25 03:10:00+00:00,325.0,322.0,8.68,10.55,,47.59359,-54.27349
2018-11-25 03:20:00+00:00,329.0,340.0,10.26,12.74,,47.59359,-54.27349
2018-11-25 03:30:00+00:00,325.0,318.0,10.46,12.42,,47.59359,-54.27349
2018-11-25 03:40:00+00:00,327.0,317.0,10.25,11.53,,47.59359,-54.27349
2018-11-25 03:50:00+00:00,324.0,321.0,11.82,13.81,,47.59359,-54.27349
2018-11-25 04:00:00+00:00,320.0,322.0,12.18,14.5,,47.59359,-54.27349
2018-11-25 04:10:00+00:00,324.0,322.0,12.37,15.11,,47.59359,-54.27349
2018-11-25 04:20:00+00:00,330.0,329.0,13.22,16.61,,47.59359,-54.27349
2018-11-25 04:30:00+00:00,331.0,322.0,10.98,13.8,,47.59359,-54.27349
2018-11-25 04:40:00+00:00,329.0,328.0,11.9,13.79,,47.59359,-54.27349
2018-11-25 04:50:00+00:00,327.0,331.0,10.82,12.79,,47.59359,-54.27349
2018-11-25 05:00:00+00:00,325.0,327.0,11.86,13.2,,47.59359,-54.27349
2018-11-25 05:10:00+00:00,328.0,328.0,11.87,15.52,,47.59359,-54.27349
2018-11-25 05:20:00+00:00,334.0,337.0,12.27,14.03,,47.59359,-54.27349
2018-11-25 05:30:00+00:00,327.0,327.0,11.38,12.9,,47.59359,-54.27349
2018-11-25 05:40:00+00:00,328.0,323.0,10.51,12.35,,47.59359,-54.27349
2018-11-25 05:50:00+00:00,325.0,320.0,10.18,11.67,,47.59359,-54.27349
2018-11-25 06:00:00+00:00,327.0,331.0,11.09,13.09,,47.59359,-54.27349
2018-11-25 06:10:00+00:00,320.0,327.0,12.04,14.06,,47.59359,-54.27349
2018-11-25 06:20:00+00:00,321.0,314.0,11.67,14.42,,47.59359,-54.27349
2018-11-25 06:30:00+00:00,318.0,320.0,11.28,13.84,,47.59359,-54.27349
2018-11-25 06:40:00+00:00,316.0,308.0,9.39,12.0,,47.59359,-54.27349
2018-11-25 06:50:00+00:00,316.0,316.0,10.63,12.94,,47.59359,-54.27349
2018-11-25 07:00:00+00:00,319.0,318.0,9.58,11.59,,47.59359,-54.27349
2018-11-25 07:10:00+00:00,323.0,327.0,10.69,12.44,,47.59359,-54.27349
2018-11-25 07:20:00+00:00,318.0,339.0,10.42,13.23,,47.59359,-54.27349
2018-11-25 07:30:00+00:00,314.0,315.0,10.73,12.73,,47.59359,-54.27349
2018-11-25 07:40:00+00:00,323.0,331.0,10.64,13.96,,47.59359,-54.27349
2018-11-25 07:50:00+00:00,320.0,318.0,9.72,11.5,,47.59359,-54.27349
2018-11-25 08:00:00+00:00,315.0,319.0,10.01,11.04,,47.59359,-54.27349
2018-11-25 08:10:00+00:00,314.0,310.0,9.79,11.32,,47.59359,-54.27349
2018-11-25 08:20:00+00:00,313.0,309.0,8.59,11.44,,47.59359,-54.27349
2018-11-25 08:30:00+00:00,322.0,326.0,8.99,10.42,,47.59359,-54.27349
2018-11-25 08:40:00+00:00,326.0,331.0,7.53,10.64,,47.59359,-54.27349
2018-11-25 08:50:00+00:00,324.0,333.0,5.75,7.07,,47.59359,-54.27349
2018-11-25 09:00:00+00:00,323.0,330.0,6.6,7.89,,47.59359,-54.27349
2018-11-25 09:10:00+00:00,313.0,309.0,6.98,9.3,,47.59359,-54.27349
2018-11-25 09:20:00+00:00,305.0,314.0,7.86,9.75,,47.59359,-54.27349
2018-11-25 09:30:00+00:00,305.0,297.0,7.96,9.45,,47.59359,-54.27349
2018-11-25 09:40:00+00:00,303.0,300.0,8.95,10.45,,47.59359,-54.27349
2018-11-25 09:50:00+00:00,306.0,307.0,9.48,11.23,,47.59359,-54.27349
2018-11-25 10:00:00+00:00,317.0,311.0,10.19,12.23,,47.59359,-54.27349
2018-11-25 10:10:00+00:00,310.0,320.0,10.07,11.57,,47.59359,-54.27349
2018-11-25 10:20:00+00:00,315.0,320.0,9.95,12.09,,47.59359,-54.27349
2018-11-25 10:30:00+00:00,325.0,322.0,8.98,11.18,,47.59359,-54.27349
2018-11-25 10:40:00+00:00,319.0,319.0,9.11,10.48,,47.59359,-54.27349
2018-11-25 10:50:00+00:00,318.0,321.0,9.78,11.24,,47.59359,-54.27349
2018-11-25 11:00:00+00:00,321.0,318.0,9.51,10.5,,47.59359,-54.27349
2018-11-25 11:10:00+00:00,331.0,336.0,8.68,10.64,,47.59359,-54.27349
2018-11-25 11:20:00+00:00,342.0,347.0,8.32,10.65,,47.59359,-54.27349
2018-11-25 11:30:00+00:00,345.0,345.0,8.11,9.14,,47.59359,-54.27349
2018-11-25 11:40:00+00:00,346.0,347.0,5.69,6.74,,47.59359,-54.27349
2018-11-25 11:50:00+00:00,336.0,343.0,6.92,8.17,,47.59359,-54.27349
2018-11-25 12:00:00+00:00,329.0,338.0,7.12,8.02,,47.59359,-54.27349
2018-11-25 12:10:00+00:00,317.0,314.0,6.82,8.89,,47.59359,-54.27349
2018-11-25 12:20:00+00:00,331.0,341.0,7.66,9.3,,47.59359,-54.27349
2018-11-25 12:30:00+00:00,327.0,318.0,6.1,7.64,,47.59359,-54.27349
2018-11-25 12:40:00+00:00,320.0,319.0,8.04,9.1,,47.59359,-54.27349
2018-11-25 12:50:00+00:00,326.0,319.0,8.7,10.26,,47.59359,-54.27349
2018-11-25 13:00:00+00:00,340.0,337.0,7.91,8.91,,47.59359,-54.27349
2018-11-25 13:10:00+00:00,341.0,340.0,9.8,11.09,,47.59359,-54.27349
2018-11-25 13:20:00+00:00,329.0,327.0,10.69,12.06,,47.59359,-54.27349
2018-11-25 13:30:00+00:00,343.0,346.0,9.77,11.29,,47.59359,-54.27349
2018-11-25 13:40:00+00:00,344.0,348.0,8.8,10.81,,47.59359,-54.27349
2018-11-25 13:50:00+00:00,332.0,325.0,9.33,10.97,,47.59359,-54.27349
2018-11-25 14:00:00+00:00,333.0,330.0,10.72,12.71,,47.59359,-54.27349
2018-11-25 14:10:00+00:00,338.0,350.0,9.75,12.3,,47.59359,-54.27349
2018-11-25 14:20:00+00:00,331.0,331.0,9.45,10.77,,47.59359,-54.27349
2018-11-25 14:30:00+00:00,335.0,341.0,8.3,10.13,,47.59359,-54.27349
2018-11-25 14:40:00+00:00,327.0,329.0,8.17,9.7,,47.59359,-54.27349
2018-11-25 14:50:00+00:00,322.0,325.0,7.15,8.47,,47.59359,-54.27349
2018-11-25 15:00:00+00:00,336.0,335.0,6.9,8.01,,47.59359,-54.27349
2018-11-25 15:10:00+00:00,343.0,343.0,7.32,8.34,,47.59359,-54.27349
2018-11-25 15:20:00+00:00,312.0,308.0,5.18,5.97,,47.59359,-54.27349
2018-11-25 15:30:00+00:00,320.0,320.0,6.43,7.74,,47.59359,-54.27349
2018-11-25 15:40:00+00:00,325.0,325.0,7.66,9.53,,47.59359,-54.27349
2018-11-25 15:50:00+00:00,325.0,322.0,7.82,9.11,,47.59359,-54.27349
2018-11-25 16:00:00+00:00,334.0,326.0,6.7,8.52,,47.59359,-54.27349
2018-11-25 16:10:00+00:00,323.0,307.0,4.95,6.73,,47.59359,-54.27349
2018-11-25 16:20:00+00:00,324.0,327.0,4.65,6.44,,47.59359,-54.27349
2018-11-25 16:30:00+00:00,311.0,297.0,6.68,9.96,,47.59359,-54.27349
2018-11-25 16:40:00+00:00,312.0,316.0,8.66,11.22,,47.59359,-54.27349
2018-11-25 16:50:00+00:00,313.0,316.0,8.19,9.26,,47.59359,-54.27349
2018-11-25 17:00:00+00:00,312.0,314.0,9.48,11.82,,47.59359,-54.27349
2018-11-25 17:10:00+00:00,315.0,318.0,9.87,11.71,,47.59359,-54.27349
2018-11-25 17:20:00+00:00,309.0,311.0,8.13,9.42,,47.59359,-54.27349
2018-11-25 17:30:00+00:00,306.0,310.0,9.29,10.42,,47.59359,-54.27349
2018-11-25 17:40:00+00:00,307.0,303.0,9.88,11.17,,47.59359,-54.27349
2018-11-25 17:50:00+00:00,300.0,296.0,9.53,10.5,,47.59359,-54.27349
2018-11-25 18:00:00+00:00,303.0,302.0,9.03,10.61,,47.59359,-54.27349
2018-11-25 18:10:00+00:00,307.0,305.0,7.74,8.91,,47.59359,-54.27349
2018-11-25 18:20:00+00:00,304.0,300.0,8.69,10.52,,47.59359,-54.27349
2018-11-25 18:30:00+00:00,307.0,310.0,8.8,9.82,,47.59359,-54.27349
2018-11-25 18:40:00+00:00,298.0,299.0,11.3,13.04,,47.59359,-54.27349
2018-11-25 18:50:00+00:00,304.0,306.0,10.1,10.87,,47.59359,-54.27349
2018-11-25 19:00:00+00:00,311.0,313.0,8.92,9.97,,47.59359,-54.27349
2018-11-25 19:10:00+00:00,300.0,300.0,9.59,10.86,,47.59359,-54.27349
2018-11-25 19:20:00+00:00,310.0,309.0,9.26,11.04,,47.59359,-54.27349
2018-11-25 19:30:00+00:00,302.0,302.0,8.19,9.15,,47.59359,-54.27349
2018-11-25 19:40:00+00:00,316.0,318.0,9.9,11.56,,47.59359,-54.27349
2018-11-25 19:50:00+00:00,312.0,315.0,9.11,10.62,,47.59359,-54.27349
2018-11-25 20:00:00+00:00,304.0,305.0,8.16,9.4,,47.59359,-54.27349
2018-11-25 20:10:00+00:00,305.0,303.0,8.86,11.01,,47.59359,-54.27349
2018-11-25 20:20:00+00:00,304.0,304.0,9.24,10.54,,47.59359,-54.27349
2018-11-25 20:30:00+00:00,298.0,302.0,9.49,10.83,,47.59359,-54.27349
2018-11-25 20:40:00+00:00,308.0,312.0,9.83,11.62,,47.59359,-54.27349
2018-11-25 20:50:00+00:00,299.0,299.0,11.5,13.62,,47.59359,-54.27349
2018-11-25 21:00:00+00:00,302.0,299.0,9.15,11.37,,47.59359,-54.27349
2018-11-25 21:10:00+00:00,305.0,306.0,7.91,10.22,,47.59359,-54.27349
2018-11-25 21:20:00+00:00,308.0,308.0,8.9,10.57,,47.59359,-54.27349
2018-11-25 21:30:00+00:00,290.0,302.0,8.94,11.06,,47.59359,-54.27349
2018-11-25 21:40:00+00:00,293.0,293.0,8.24,10.0,,47.59359,-54.27349
2018-11-25 21:50:00+00:00,290.0,292.0,8.45,10.52,,47.59359,-54.27349
2018-11-25 22:00:00+00:00,303.0,307.0,8.45,10.04,,47.59359,-54.27349
2018-11-25 22:10:00+00:00,303.0,302.0,10.32,11.95,,47.59359,-54.27349
2018-11-25 22:20:00+00:00,313.0,315.0,11.58,13.39,,47.59359,-54.27349
2018-11-25 22:30:00+00:00,312.0,308.0,11.91,13.8,,47.59359,-54.27349
2018-11-25 22:40:00+00:00,316.0,323.0,11.82,14.45,,47.59359,-54.27349
2018-11-25 22:50:00+00:00,322.0,322.0,11.98,16.68,,47.59359,-54.27349
2018-11-25 23:00:00+00:00,318.0,316.0,13.23,17.68,,47.59359,-54.27349
2018-11-25 23:10:00+00:00,328.0,323.0,10.7,13.8,,47.59359,-54.27349
2018-11-25 23:20:00+00:00,329.0,327.0,12.81,15.37,,47.59359,-54.27349
2018-11-25 23:30:00+00:00,333.0,346.0,11.3,14.05,,47.59359,-54.27349
2018-11-25 23:40:00+00:00,322.0,322.0,11.57,14.98,,47.59359,-54.27349
2018-11-25 23:50:00+00:00,337.0,336.0,11.12,12.29,,47.59359,-54.27349
